Regional Weather Roundup
Issued by NWS

Home | Current Version | Previous Version | Text Only | Print | Product List | Glossary On
Versions: 1 2 3 4 5 6 7 8 9 10 11 12 13 14 15 16 17 18 19 20 21 22 23 24 25 26 27 28 29 30 31 32 33 34 35 36 37 38 39 40 41 42 43 44 45 46 47 48 49 50
000
ASUS46 KSEW 192010
RWRWA

WASHINGTON REGIONAL WEATHER ROUNDUP
NATIONAL WEATHER SERVICE SEATTLE WA
1200 PM PST SUN FEB 19 2017

NOTE:"FAIR" INDICATES FEW OR NO CLOUDS BELOW 12,000 FEET WITH NO
SIGNIFICANT WEATHER AND/OR OBSTRUCTIONS TO VISIBILITY.

WAZ507-509-555>559-192100-
SEATTLE, TACOMA, EVERETT, AND VICINITY

CITY           SKY/WX    TMP DP  RH WIND       PRES   REMARKS
EVERETT        CLOUDY    46  38  73 SE22G29   29.46R
BOEING FIELD   LGT RAIN  48  41  76 S15G23    29.49R
RENTON         CLOUDY    48  40  73 SE15G22   29.48R
SEATAC AIRPORT LGT RAIN  46  39  76 S15G25    29.48R
JBLM-MCCHORD   LGT RAIN  44  44  99 S12       29.49R
PUYALLUP       DRIZZLE   45  41  87 SE12G17   29.49R
BREMERTON      CLOUDY    43  39  87 S10G16    29.50R
JBLM-FT LEWIS  PTSUNNY   44  44  99 SE16G26   29.48R
TACOMA NARROWS CLOUDY    44  40  85 S9        29.48R
$$

WAZ001-503-506-510-514-515-192100-
NORTH INTERIOR

CITY           SKY/WX    TMP DP  RH WIND       PRES   REMARKS
BELLINGHAM     CLOUDY    49  38  65 SE15G26   29.43S
FRIDAY HARBOR  PTSUNNY   47  39  74 SE20G29   29.42R
EASTSOUND      PTSUNNY   46  39  76 S10G22    29.39S
PORT ANGELES   LGT RAIN  45  42  89 E5        29.38F FOG
EDIZ HOOK      RAIN      45  41  86 E3        29.39S
PORT TOWNSEND  CLOUDY    46  41  81 S9G23     29.45R
NAS WHIDBEY    PTSUNNY   49  37  63 SE25G37   29.47R
ARLINGTON      CLOUDY    48  36  61 SE13G18   29.49S
BURLINGTON     MOSUNNY   50  39  66 SE13G24   29.45S
$$

WAZ020-022-039-040-504-511-512-192100-
SOUTHWEST INTERIOR

CITY           SKY/WX    TMP DP  RH WIND       PRES   REMARKS
SHELTON        LGT RAIN  44  39  82 SE15G23   29.44R
OLYMPIA        CLOUDY    43  40  89 S15G24    29.48R
CHEHALIS       PTSUNNY   43  43 100 S12G17    29.49R
KELSO          CLOUDY    46  42  86 S8        29.52S
VANCOUVER      CLOUDY    50  42  74 SE13G20   29.53S
SCAPPOOSE, OR  CLOUDY    47  42  83 S7        29.51S
PORTLAND, OR   CLOUDY    50  39  66 S21G29    29.54S
$$

WAZ021-516-517-192100-
WASHINGTON COAST

CITY           SKY/WX    TMP DP  RH WIND       PRES   REMARKS
FORKS          LGT RAIN  43  41  93 SE17G25   29.35R
HOQUIAM        LGT RAIN  44  42  93 E20       29.42R FOG
ASTORIA, OR    LGT RAIN  45  39  79 S13G22    29.45R
$$

WAZ019-023-024-040-567>569-192100-
CASCADE MOUNTAINS AND COLUMBIA GORGE

CITY           SKY/WX    TMP DP  RH WIND       PRES   REMARKS
STAMPEDE PASS  NOT AVBL
TROUTDALE, OR  CLOUDY    49  42  77 E8        29.55S
THE DALLES, OR CLOUDY    42  38  85 CALM      29.58R
$$

WAZ026-027-041>044-520-521-192100-
EAST SLOPES

CITY           SKY/WX    TMP DP  RH WIND       PRES   REMARKS
OMAK           MIX PCPN  37  33  85 S5        29.54R
WENATCHEE      CLOUDY    34  33  96 E5        29.53R
ELLENSBURG     CLOUDY    40  33  76 S5        29.51R
YAKIMA         PTSUNNY   39  35  86 SE6       29.55R
SUNNYSIDE ARPT PTCLDY    38  34  87 S5        29.56R
$$

WAZ028-034-035-192100-
COLUMBIA BASIN

CITY           SKY/WX    TMP DP  RH WIND       PRES   REMARKS
EPHRATA        CLOUDY    36  31  82 NE3       29.54R
MOSES LAKE     CLOUDY    37  34  89 SE5       29.54F
PASCO          MOSUNNY   38  36  92 SE6       29.59R FOG
HERMISTON, OR  PTSUNNY   41  41 100 SE3       29.57F FOG
$$

WAZ036>038-192100-
NORTHEAST WASHINGTON

CITY           SKY/WX    TMP DP  RH WIND       PRES   REMARKS
SPOKANE GEIGER PTSUNNY   37  34  89 SE3       29.53S
SPOKANE FELTS  PTSUNNY   40  36  86 E7        29.55S
FAIRCHILD AFB  LGT RAIN  36  36 100 SE3       29.52S
COEURDALENE,ID CLOUDY    39  35  86 S3        29.55S
DEER PARK      CLOUDY    35  32  88 CALM      29.55S
$$

WAZ029>033-192100-
SOUTHEAST WASHINGTON

CITY           SKY/WX    TMP DP  RH WIND       PRES   REMARKS
PULLMAN        RAIN      41  35  79 SW14      29.57R
LEWISTON, ID   CLOUDY    45  39  79 N6        29.54F
WALLA WALLA    PTSUNNY   45  40  82 S9        29.58S
PENDLETON, OR  PTSUNNY   49  40  71 NW10      29.55R
$$



USA.gov is the U.S. government's official web portal to all federal, state and local government web resources and services.